Raleigh-Durham Airport, NC

2:13 AM EDT on April 30, 2017 (GMT -0400)
Raleigh-Durham International

Weather History for KRDU - December, 2012

Change the Weather History Date:

Wednesday, December 26, 2012

  Actual Average Record
Temperature  
Mean Temperature 43 °F 41 °F  
Max Temperature 49 °F 51 °F 75 °F (1889)
Min Temperature 37 °F 31 °F 5 °F (1983)
Degree Days  
Heating Degree Days 22 24  
Month to date heating degree days 357 549  
Since 1 July heating degree days 1051 1130  
Cooling Degree Days 0 0  
Month to date cooling degree days 3 0  
Year to date cooling degree days 1874 1728  
Moisture  
Dew Point 42 °F    
Average Humidity 88    
Maximum Humidity 100    
Minimum Humidity 76    
Precipitation  
Precipitation 1.41 in 0.10 in 2.00 in (1943)
Month to date precipitation 2.57 2.58  
Year to date precipitation 40.42 42.85  
Snow  
Snow 0.00 in 0.00 in 6.70 in (2010)
Month to date snowfall 0.0 0.4  
Since 1 July snowfall 0.0 0.5  
Snow Depth 0.00 in    
Sea Level Pressure  
Sea Level Pressure 29.67 in    
Wind  
Wind Speed 9 mph (NNE)    
Max Wind Speed 23 mph    
Max Gust Speed 31 mph    
Visibility 8 miles    
Events Rain , Thunderstorm    
T = Trace of Precipitation, MM = Missing Value Source: NWS Daily Summary

Daily Weather History Graph

Daily Weather History Graph

Search for Another Location

Airport or City:

Trip Planner

Search our weather history database for the weather conditions in past years. The results will help you decide how hot, cold, wet, or windy it might be!

Date:

Astronomy

Dec. 26, 2012 Rise Set
Actual Time 7:23 AM EST 5:08 PM EST
Civil Twilight 6:55 AM EST 5:36 PM EST
Nautical Twilight 6:23 AM EST 6:08 PM EST
Astronomical Twilight 5:52 AM EST 6:39 PM EST
Moon 3:59 PM EST (12/26) 5:46 AM EST (12/26)
Length of Visible Light 10h 41m
Length of Day
9h 44m
Waxing Gibbous, 97% of the Moon is Illuminated
Dec 26
Waxing Gibbous
Dec 28
Full
Jan 4
Last Quarter
Jan 11
New
Jan 18
First Quarter

Hourly Weather History & Observations

Time (EST) Temp. Windchill Dew Point Humidity Pressure Visibility Wind Dir Wind Speed Gust Speed Precip Events Conditions
12:51 AM 45.0 °F 40.1 °F 39.0 °F 80% 30.06 in 10.0 mi ENE 9.2 mph - 0.01 in   Overcast
1:51 AM 44.1 °F 39.5 °F 37.9 °F 79% 30.06 in 10.0 mi ENE 8.1 mph - N/A   Overcast
2:51 AM 44.1 °F 39.0 °F 37.9 °F 79% 30.04 in 10.0 mi East 9.2 mph 18.4 mph N/A   Overcast
3:51 AM 43.0 °F 38.8 °F 39.0 °F 86% 30.03 in 7.0 mi East 6.9 mph - 0.01 in   Overcast
4:51 AM 43.0 °F 36.4 °F 39.9 °F 89% 29.96 in 6.0 mi ENE 12.7 mph 18.4 mph 0.00 in Rain Light Rain
5:51 AM 43.0 °F 35.1 °F 39.9 °F 89% 29.90 in 5.0 mi East 17.3 mph 29.9 mph 0.02 in Rain Light Rain
6:51 AM 43.0 °F 35.7 °F 39.9 °F 89% 29.89 in 7.0 mi East 15.0 mph 26.5 mph 0.11 in Rain Light Rain
7:51 AM 43.0 °F 34.5 °F 41.0 °F 93% 29.81 in 4.0 mi East 19.6 mph 27.6 mph 0.27 in Rain Light Rain
8:51 AM 44.1 °F 35.9 °F 43.0 °F 96% 29.76 in 6.0 mi East 19.6 mph 28.8 mph 0.07 in Rain Light Rain
9:27 AM 44.6 °F 37.2 °F 42.8 °F 93% 29.75 in 1.5 mi East 17.3 mph 23.0 mph 0.09 in Rain Heavy Rain
9:51 AM 44.1 °F 40.8 °F 43.0 °F 96% 29.77 in 2.0 mi NNE 5.8 mph - 0.24 in Rain Rain
10:51 AM 44.6 °F 38.4 °F 42.8 °F 93% 29.69 in 2.0 mi ENE 12.7 mph 20.7 mph N/A Rain Rain
11:15 AM 44.6 °F 39.7 °F 44.6 °F 100% 29.67 in 7.0 mi ENE 9.2 mph - 0.03 in Rain Light Rain
11:51 AM 45.0 °F 41.2 °F 43.0 °F 93% 29.60 in 10.0 mi East 6.9 mph 17.3 mph 0.06 in Rain Light Rain
12:51 PM 48.0 °F - 46.0 °F 93% 29.57 in 5.0 mi West 15.0 mph 21.9 mph 0.22 in Rain Light Rain
12:57 PM 46.4 °F 42.4 °F 46.4 °F 100% 29.52 in 5.0 mi North 8.1 mph 21.9 mph 0.01 in Rain , Thunderstorm Light Thunderstorms and Rain
1:39 PM 46.4 °F 42.9 °F 46.4 °F 100% 29.49 in 10.0 mi North 6.9 mph - 0.02 in   Overcast
1:51 PM 46.9 °F - 46.9 °F 100% 29.47 in 10.0 mi NNE 9.2 mph - 0.02 in   Overcast
2:37 PM 48.2 °F - 48.2 °F 100% 29.44 in 10.0 mi NE 5.8 mph - N/A   Overcast
2:51 PM 48.9 °F - 48.9 °F 100% 29.45 in 10.0 mi North 4.6 mph - N/A   Overcast
3:29 PM 48.2 °F - 46.4 °F 93% 29.45 in 1.0 mi NNW 10.4 mph - N/A   Overcast
3:36 PM 46.4 °F 42.9 °F 46.4 °F 100% 29.45 in 1.5 mi Variable 6.9 mph - N/A   Overcast
3:51 PM 46.0 °F 43.9 °F 46.0 °F 100% 29.44 in 1.5 mi North 4.6 mph - N/A   Overcast
4:17 PM 46.4 °F 43.5 °F 44.6 °F 93% 29.46 in 10.0 mi Variable 5.8 mph - N/A   Overcast
4:51 PM 45.0 °F 42.6 °F 42.1 °F 90% 29.47 in 10.0 mi Variable 4.6 mph - N/A   Overcast
5:51 PM 44.1 °F 42.5 °F 42.1 °F 93% 29.50 in 10.0 mi Variable 3.5 mph - N/A   Overcast
6:32 PM 42.8 °F 39.3 °F 39.2 °F 87% 29.52 in 10.0 mi NW 5.8 mph - N/A   Overcast
6:51 PM 41.0 °F 39.0 °F 39.0 °F 93% 29.53 in 10.0 mi West 3.5 mph - N/A   Overcast
7:51 PM 39.9 °F 35.8 °F 37.9 °F 93% 29.55 in 10.0 mi West 5.8 mph - N/A   Overcast
8:51 PM 39.9 °F 34.5 °F 37.9 °F 93% 29.57 in 10.0 mi West 8.1 mph - N/A   Overcast
9:51 PM 39.9 °F 36.7 °F 37.0 °F 89% 29.60 in 10.0 mi West 4.6 mph - N/A   Overcast
10:21 PM 39.2 °F 33.6 °F 35.6 °F 87% 29.61 in 10.0 mi WSW 8.1 mph - N/A   Mostly Cloudy
10:51 PM 39.0 °F 34.8 °F 36.0 °F 89% 29.62 in 10.0 mi WSW 5.8 mph - N/A   Mostly Cloudy
11:51 PM 37.0 °F 32.4 °F 35.1 °F 93% 29.63 in 10.0 mi WSW 5.8 mph - N/A   Partly Cloudy